COSMOS 832

Satellite information

Favourite Embed

Satellite Type and Status

PAYLOADIN ORBIT

Key statistics

Satellite COSMOS 832 at a glance.

Uptime

17983

Days in orbit

Revolutions

≈ 12.4

Per day

Orbit

LEO

Low Earth Orbit

Inclination

74.0

Latest

Satellite identification and parameters

Extended collection of information and parameters for COSMOS 832.

Object identification

Identified? True

Debris? False

Object name: COSMOS 832

International designator: 1976-054H

Object number (NORAD): 8896

Object ID (CCSDS): 8896

Country: COMMONWEALTH OF INDEPENDENT STATES (CIS)

Current information (Y/N): Y

RCS size: MEDIUM

Orbital parameters

Period: 116.006 minutes

Inclination: 74.0034 deg

SMA: 7879.161 km

Apoapsis: 1520.53 km

Periapsis: 1481.522 km

RAAN: 324.5634 deg

Eccentricy: 0.0024754

Argument of periapsis: 345.1107 deg

Mean anomaly: 124.8372 deg

Mean motion: 12.41317316 rev/day

Mean motion (dot): 0.00000012 rev/day2

B* drag term: 0.00020077953 1/REarth

Two-line elements (TLE)

Creation date: Sept. 8, 2025, 6:18 p.m.

Reference frame: TEME

Reference center: EARTH

Epoch: Sept. 8, 2025, 1:56 p.m. UTC

TLE line 0: 0 COSMOS 832

TLE line 1: 1 08896U 76054H 25251.58062640 .00000012 00000-0 20078-3 0 9992

TLE line 2: 2 08896 74.0034 324.5634 0024754 345.1107 124.8372 12.41317316230956

Live tracking on map

Real-time ground track for satellite COSMOS 832.

In-orbit conjunctions

There are no conjunctions computed for COSMOS 832, at the moment. Check back to stay up to date, as we update our databases every day.

Go to all conjunctions

Associated space launch

Military communications satellites

COSMOS 832 was lifted into orbit during the mission ‘Kosmos-3M | Strela-1M 113-120’, on board a Kosmos-3M space rocket.

The launch took place on June 15, 1976, 1:19 p.m. from 132/2.

For more information about the launch, click the button.

Launch to space Kosmos-3M | Strela-1M 113-120
Kosmos-3M | Strela-1M 113-120

Agency: N/A

Status: Launch Successful

Launch date: June 15, 1976, 1:19 p.m. UTC

Rocket: Kosmos-3M

Launch pad: 132/2

Location: Plesetsk Cosmodrome, Russian Federation

...

Latest news about this satellite

There are no fresh news available about this satellite. Check back as we update our databases every day.


Newsletter sign-up

Weekly statistics, charts and insights to help you stay on top of the space industry.